Akron, CO

1:45 AM MDT on April 30, 2017 (GMT -0600)
Akron-Washington County

Weather History for KAKO - October, 2011

Change the Weather History Date:

Monday, October 24, 2011

  Actual Average Record
Temperature  
Mean Temperature 61 °F 47 °F  
Max Temperature 79 °F 61 °F 86 °F (1940)
Min Temperature 43 °F 34 °F 15 °F (1945)
Degree Days  
Heating Degree Days 4    
Month to date heating degree days 246  
Cooling Degree Days 0    
Month to date cooling degree days 17  
Growing Degree Days 12 (Base 50)    
Moisture  
Dew Point 23 °F    
Average Humidity 28    
Maximum Humidity 49    
Minimum Humidity 7    
Precipitation  
Precipitation 0.00 in 0.03 in 0.26 in (1947)
Month to date precipitation 0.62 0.94  
Year to date precipitation 15.59  
Sea Level Pressure  
Sea Level Pressure 29.87 in    
Wind  
Wind Speed 9 mph (WSW)    
Max Wind Speed 15 mph    
Max Gust Speed 21 mph    
Visibility 10 miles    
Events      
T = Trace of Precipitation, MM = Missing Value Source: NWS Daily Summary

Daily Weather History Graph

Daily Weather History Graph

Search for Another Location

Airport or City:

Trip Planner

Search our weather history database for the weather conditions in past years. The results will help you decide how hot, cold, wet, or windy it might be!

Date:

Astronomy

Oct. 24, 2011 Rise Set
Actual Time 7:13 AM MDT 6:00 PM MDT
Civil Twilight 6:45 AM MDT 6:28 PM MDT
Nautical Twilight 6:13 AM MDT 6:59 PM MDT
Astronomical Twilight 5:42 AM MDT 7:31 PM MDT
Moon 4:34 AM MDT (10/24) 4:26 PM MDT (10/24)
Length of Visible Light 11h 42m
Length of Day
10h 47m
Waning Crescent, 7% of the Moon is Illuminated
Oct 24
Waning Crescent
Oct 26
New
Nov 2
First Quarter
Nov 10
Full
Nov 18
Last Quarter

Hourly Weather History & Observations

Time (MDT) Temp. Windchill Dew Point Humidity Pressure Visibility Wind Dir Wind Speed Gust Speed Precip Events Conditions
12:53 AM 52.0 °F - 26.1 °F 37% 30.00 in 10.0 mi SSW 10.4 mph - N/A   Clear
1:53 AM 45.0 °F 38.9 °F 26.1 °F 48% 30.01 in 10.0 mi WSW 12.7 mph - N/A   Clear
2:53 AM 45.0 °F 38.9 °F 27.0 °F 49% 30.00 in 10.0 mi WSW 12.7 mph - N/A   Clear
3:53 AM 51.1 °F - 26.1 °F 38% 29.97 in 10.0 mi SW 13.8 mph - N/A   Clear
4:53 AM 48.9 °F - 26.1 °F 41% 29.97 in 10.0 mi SW 11.5 mph - N/A   Clear
5:53 AM 48.9 °F - 27.0 °F 43% 29.98 in 10.0 mi SSW 12.7 mph - N/A   Clear
6:53 AM 46.0 °F 41.4 °F 28.0 °F 50% 29.99 in 10.0 mi WSW 9.2 mph - N/A   Clear
7:53 AM 51.1 °F - 28.0 °F 41% 29.98 in 10.0 mi WSW 10.4 mph - N/A   Clear
8:53 AM 54.0 °F - 28.0 °F 37% 29.97 in 10.0 mi WSW 11.5 mph - N/A   Clear
9:53 AM 55.9 °F - 27.0 °F 33% 29.94 in 10.0 mi WSW 10.4 mph - N/A   Clear
10:53 AM 61.0 °F - 28.0 °F 29% 29.92 in 10.0 mi Calm Calm - N/A   Clear
11:53 AM 68.0 °F - 25.0 °F 20% 29.88 in 10.0 mi West 6.9 mph - N/A   Clear
1:53 PM 77.0 °F - 19.0 °F 11% 29.81 in 10.0 mi Variable 5.8 mph - N/A   Clear
2:53 PM 78.1 °F - 9.0 °F 7% 29.76 in 10.0 mi SW 4.6 mph - N/A   Clear
3:53 PM 79.0 °F - 10.9 °F 8% 29.75 in 10.0 mi SW 9.2 mph - N/A   Clear
4:53 PM 77.0 °F - 12.0 °F 8% 29.74 in 10.0 mi NNW 4.6 mph - N/A   Clear
5:53 PM 68.0 °F - 16.0 °F 14% 29.75 in 10.0 mi North 5.8 mph - N/A   Clear
6:53 PM 64.0 °F - 14.0 °F 14% 29.78 in 10.0 mi ENE 6.9 mph - N/A   Clear
8:53 PM 64.0 °F - 25.0 °F 23% 29.75 in 10.0 mi East 5.8 mph - N/A   Clear
9:53 PM 64.0 °F - 25.0 °F 23% 29.73 in 10.0 mi East 4.6 mph - N/A   Clear
10:53 PM 59.0 °F - 27.0 °F 29% 29.73 in 10.0 mi Calm Calm - N/A   Clear
11:53 PM 50.0 °F - 28.9 °F 44% 29.73 in 10.0 mi West 10.4 mph - N/A   Clear